When you browse on this site, cookies collect data to enhance your experience and personalize the content and advertising you see.
Visit our Privacy Policy to learn more. By continuing to use the site, you agree to this use of cookies and data.
  • In United Kingdom
  • List of Countries
  • For 7 days
  • Water Temperature
  • Weather Map
  • Weather Widgets
  • user-avatar
    Login

    Hourly Weather Andol

    Today, 3 April, Friday

    Time Temperature Precipitation Wind Pressure Humidity
    00:00 +31°C° 0 mm 2 mps 714 mmHg 32%
    01:00 +30°C° 0 mm 2 mps 714 mmHg 36%
    02:00 +29°C° 0 mm 2 mps 713 mmHg 40%
    03:00 +29°C° 0 mm 2 mps 713 mmHg 40%
    04:00 +29°C° 0 mm 2 mps 714 mmHg 41%
    05:00 +29°C° 0 mm 2 mps 714 mmHg 42%
    06:00 +30°C° 0 mm 3 mps 715 mmHg 38%
    07:00 +33°C° 0 mm 3 mps 716 mmHg 34%
    08:00 +34°C° 0 mm 3 mps 716 mmHg 30%
    09:00 +36°C° 0 mm 3 mps 716 mmHg 27%
    10:00 +38°C° 0 mm 4 mps 716 mmHg 24%
    11:00 +41°C° 0 mm 4 mps 717 mmHg 21%
    12:00 +41°C° 0 mm 4 mps 716 mmHg 20%
    13:00 +41°C° 0 mm 4 mps 715 mmHg 20%
    14:00 +41°C° 0 mm 4 mps 714 mmHg 19%
    15:00 +41°C° 0 mm 4 mps 714 mmHg 20%
    16:00 +40°C° 0 mm 4 mps 714 mmHg 20%
    17:00 +40°C° 0 mm 4 mps 713 mmHg 21%
    18:00 +38°C° 0 mm 3 mps 714 mmHg 23%
    19:00 +36°C° 0 mm 3 mps 714 mmHg 25%
    20:00 +35°C° 0 mm 2 mps 715 mmHg 27%
    21:00 +35°C° 0 mm 2 mps 715 mmHg 28%
    22:00 +34°C° 0 mm 3 mps 715 mmHg 29%
    23:00 +34°C° 0 mm 3 mps 715 mmHg 31%

    Tomorrow, 4 April, Saturday

    Time Temperature Precipitation Wind Pressure Humidity
    00:00 +33°C° 0 mm 3 mps 715 mmHg 32%
    01:00 +31°C° 0 mm 3 mps 714 mmHg 34%
    02:00 +30°C° 0 mm 2 mps 714 mmHg 35%
    03:00 +30°C° 0 mm 3 mps 714 mmHg 34%
    04:00 +30°C° 0 mm 3 mps 714 mmHg 32%
    05:00 +30°C° 0 mm 4 mps 715 mmHg 31%
    06:00 +31°C° 0 mm 3 mps 715 mmHg 29%
    07:00 +33°C° 0 mm 3 mps 716 mmHg 26%
    08:00 +32°C° 0 mm 2 mps 717 mmHg 24%
    09:00 +35°C° 0 mm 3 mps 717 mmHg 21%
    10:00 +37°C° 0 mm 4 mps 717 mmHg 18%
    11:00 +38°C° 0 mm 4 mps 717 mmHg 15%
    12:00 +40°C° 0 mm 4 mps 717 mmHg 15%
    13:00 +41°C° 0 mm 4 mps 716 mmHg 15%
    14:00 +42°C° 0 mm 3 mps 715 mmHg 15%
    15:00 +41°C° 0 mm 4 mps 715 mmHg 16%
    16:00 +41°C° 0 mm 4 mps 714 mmHg 16%
    17:00 +41°C° 0 mm 4 mps 714 mmHg 17%
    18:00 +38°C° 0 mm 4 mps 714 mmHg 21%
    19:00 +36°C° 0 mm 5 mps 714 mmHg 25%
    20:00 +34°C° 0 mm 5 mps 715 mmHg 28%
    21:00 +34°C° 0 mm 5 mps 715 mmHg 30%
    22:00 +33°C° 0 mm 5 mps 715 mmHg 31%
    23:00 +32°C° 0 mm 5 mps 715 mmHg 33%

    Day after tomorrow, 5 April, Sunday

    Time Temperature Precipitation Wind Pressure Humidity
    00:00 +32°C° 0 mm 4 mps 714 mmHg 33%
    01:00 +30°C° 0 mm 4 mps 714 mmHg 34%
    02:00 +30°C° 0 mm 3 mps 714 mmHg 34%
    03:00 +29°C° 0 mm 3 mps 714 mmHg 34%
    04:00 +29°C° 0 mm 3 mps 714 mmHg 34%
    05:00 +28°C° 0 mm 3 mps 714 mmHg 34%
    06:00 +30°C° 0 mm 3 mps 715 mmHg 32%
    07:00 +31°C° 0 mm 3 mps 716 mmHg 29%
    08:00 +33°C° 0 mm 3 mps 717 mmHg 27%
    09:00 +36°C° 0 mm 3 mps 717 mmHg 24%
    10:00 +38°C° 0 mm 4 mps 717 mmHg 21%
    11:00 +41°C° 0 mm 4 mps 717 mmHg 17%
    12:00 +41°C° 0 mm 4 mps 716 mmHg 17%
    13:00 +40°C° 0 mm 3 mps 716 mmHg 17%
    14:00 +42°C° 0 mm 3 mps 715 mmHg 16%
    15:00 +40°C° 0 mm 3 mps 714 mmHg 17%
    16:00 +40°C° 0 mm 2 mps 714 mmHg 17%
    17:00 +39°C° 0 mm 2 mps 713 mmHg 18%
    18:00 +38°C° 0 mm 3 mps 714 mmHg 20%
    19:00 +37°C° 0 mm 3 mps 714 mmHg 22%
    20:00 +35°C° 0 mm 4 mps 715 mmHg 25%
    21:00 +35°C° 0 mm 4 mps 715 mmHg 26%
    22:00 +34°C° 0 mm 4 mps 715 mmHg 28%
    23:00 +33°C° 0 mm 4 mps 715 mmHg 29%

    6 April, Monday

    Time Temperature Precipitation Wind Pressure Humidity
    00:00 +33°C° 0 mm 4 mps 715 mmHg 29%
    01:00 +33°C° 0 mm 4 mps 714 mmHg 28%
    02:00 +32°C° 0 mm 4 mps 714 mmHg 28%
    03:00 +32°C° 0 mm 4 mps 714 mmHg 29%
    04:00 +30°C° 0 mm 4 mps 714 mmHg 29%
    05:00 +29°C° 0 mm 4 mps 714 mmHg 30%
    06:00 +32°C° 0 mm 4 mps 715 mmHg 28%
    07:00 +34°C° 0 mm 5 mps 716 mmHg 25%
    08:00 +36°C° 0 mm 5 mps 717 mmHg 22%
    09:00 +39°C° 0 mm 5 mps 717 mmHg 20%
    10:00 +41°C° 0 mm 5 mps 717 mmHg 18%
    11:00 +42°C° 0 mm 5 mps 716 mmHg 16%
    12:00 +42°C° 0 mm 4 mps 715 mmHg 16%
    13:00 +42°C° 0 mm 3 mps 715 mmHg 17%
    14:00 +40°C° 0 mm 3 mps 714 mmHg 17%
    15:00 +40°C° 0 mm 3 mps 713 mmHg 17%
    16:00 +40°C° 0 mm 2 mps 713 mmHg 18%
    17:00 +39°C° 0 mm 2 mps 712 mmHg 18%
    18:00 +38°C° 0 mm 2 mps 713 mmHg 20%
    19:00 +36°C° 0 mm 3 mps 713 mmHg 22%
    20:00 +35°C° 0 mm 3 mps 714 mmHg 24%
    21:00 +34°C° 0 mm 3 mps 714 mmHg 25%
    22:00 +34°C° 0 mm 3 mps 714 mmHg 25%
    23:00 +33°C° 0 mm 3 mps 714 mmHg 26%

    7 April, Tuesday

    Time Temperature Precipitation Wind Pressure Humidity
    00:00 +31°C° 0 mm 3 mps 713 mmHg 30%
    01:00 +30°C° 0 mm 2 mps 713 mmHg 33%
    02:00 +29°C° 0 mm 2 mps 713 mmHg 36%
    03:00 +29°C° 0 mm 2 mps 713 mmHg 36%
    04:00 +29°C° 0 mm 2 mps 713 mmHg 36%
    05:00 +29°C° 0 mm 2 mps 713 mmHg 36%
    06:00 +30°C° 0 mm 2 mps 714 mmHg 37%
    07:00 +31°C° 0 mm 2 mps 715 mmHg 38%
    08:00 +32°C° 0 mm 2 mps 715 mmHg 39%
    09:00 +36°C° 0 mm 2 mps 715 mmHg 33%
    10:00 +38°C° 0 mm 3 mps 715 mmHg 27%
    11:00 +40°C° 0 mm 3 mps 715 mmHg 21%
    12:00 +42°C° 0 mm 3 mps 714 mmHg 19%
    13:00 +42°C° 0 mm 3 mps 713 mmHg 18%
    14:00 +42°C° 0 mm 3 mps 713 mmHg 17%
    15:00 +40°C° 0 mm 3 mps 712 mmHg 18%
    16:00 +41°C° 0 mm 4 mps 712 mmHg 19%
    17:00 +40°C° 0 mm 4 mps 711 mmHg 21%
    18:00 +37°C° 0 mm 4 mps 712 mmHg 25%
    19:00 +35°C° 0 mm 4 mps 712 mmHg 30%
    20:00 +33°C° 0 mm 4 mps 712 mmHg 35%
    21:00 +33°C° 0 mm 4 mps 713 mmHg 36%
    22:00 +31°C° 0 mm 3 mps 713 mmHg 37%
    23:00 +31°C° 0 mm 3 mps 713 mmHg 38%

    8 April, Wednesday

    Time Temperature Precipitation Wind Pressure Humidity
    00:00 +30°C° 0 mm 2 mps 713 mmHg 39%
    01:00 +30°C° 0 mm 2 mps 713 mmHg 40%
    02:00 +29°C° 0 mm 2 mps 713 mmHg 41%
    03:00 +29°C° 0.3 mm 2 mps 713 mmHg 44%
    04:00 +28°C° 0.3 mm 1 mps 713 mmHg 47%
    05:00 +27°C° 0.3 mm 1 mps 713 mmHg 50%
    06:00 +29°C° 0 mm 1 mps 714 mmHg 40%
    07:00 +31°C° 0 mm 2 mps 715 mmHg 30%
    08:00 +34°C° 0 mm 3 mps 716 mmHg 21%
    09:00 +36°C° 0 mm 3 mps 716 mmHg 17%
    10:00 +38°C° 0 mm 3 mps 715 mmHg 13%
    11:00 +41°C° 0 mm 4 mps 715 mmHg 10%
    12:00 +40°C° 0 mm 3 mps 715 mmHg 10%
    13:00 +42°C° 0 mm 3 mps 714 mmHg 10%
    14:00 +43°C° 0 mm 3 mps 713 mmHg 10%
    15:00 +43°C° 0 mm 3 mps 712 mmHg 10%
    16:00 +42°C° 0 mm 3 mps 712 mmHg 10%
    17:00 +42°C° 0 mm 3 mps 711 mmHg 11%
    18:00 +39°C° 0 mm 2 mps 711 mmHg 12%
    19:00 +37°C° 0 mm 2 mps 712 mmHg 14%
    20:00 +33°C° 0 mm 1 mps 712 mmHg 16%
    21:00 +33°C° 0 mm 1 mps 712 mmHg 17%
    22:00 +32°C° 0 mm 1 mps 713 mmHg 18%
    23:00 +31°C° 0 mm 1 mps 713 mmHg 19%
    Show more